Location: *
(33.8649°S, 62.1526°E)
Time: 11:18:52
(UTC+00:00)

CBERS 1 LM4 rocket - Pass Details

Date: 17 January 2021
Orbit: 700 x 842 km, 98.8° (Epoch: 02 March)

Event Time Altitude Azimuth Distance (km) Brightness Sun altitude
Exits shadow 23:24:27 - 14° (NNE) 3,197 7.5 -17.3°
Reaches altitude 10° 23:26:35 10° 14° (NNE) 2,335 6.7 -16.9°
Maximum altitude 23:31:45 88° 286° (WNW) 772 4.4 -16.1°
Drops below altitude 10° 23:36:46 10° 193° (SSW) 2,274 7.3 -15.3°
Sets 23:39:02 0° 193° (SSW) 3,185 8.1 -14.9°
